Year,Month,Day,Hour,Minute,Value (Times are PST for temperature in C)
2015,02,15,07,56,5.70
2015,02,15,07,57,5.70
2015,02,15,07,58,5.70
2015,02,15,07,59,5.70
2015,02,15,08,00,5.70
2015,02,15,08,01,5.70
2015,02,15,08,02,5.70
2015,02,15,08,03,5.70
2015,02,15,08,04,5.70
2015,02,15,08,05,5.70
2015,02,15,08,06,5.70
2015,02,15,10,04,7.10
2015,02,15,10,05,7.20
2015,02,15,10,06,7.20
2015,02,15,10,07,7.30
2015,02,15,10,08,7.30
2015,02,15,10,09,7.40
2015,02,15,10,10,7.50
2015,02,15,10,11,7.60
2015,02,15,10,12,7.60
2015,02,15,10,13,7.70
2015,02,15,10,14,7.70
2015,02,15,10,15,7.70
2015,02,15,10,16,7.80
2015,02,15,10,17,7.80
2015,02,15,10,18,7.80
2015,02,15,10,19,7.80
2015,02,15,10,20,7.90
2015,02,15,10,21,7.80
2015,02,15,10,22,7.80
2015,02,15,10,23,7.90
2015,02,15,10,24,7.90
2015,02,15,10,25,7.90
2015,02,15,10,26,7.90
2015,02,15,10,27,7.80
2015,02,15,10,28,7.80
2015,02,15,10,29,7.80
2015,02,15,10,30,7.80
2015,02,15,10,31,7.80
2015,02,15,10,32,7.80
2015,02,15,10,33,7.90
2015,02,15,10,34,7.90
2015,02,15,10,35,8.00
2015,02,15,10,36,8.00
2015,02,15,10,37,8.00
2015,02,15,10,38,8.10
2015,02,15,10,39,8.20
2015,02,15,10,40,8.20
2015,02,15,10,41,8.20
2015,02,15,10,42,8.20
2015,02,15,10,43,8.20
2015,02,15,10,44,8.30
2015,02,15,10,45,8.30
2015,02,15,10,46,8.30
2015,02,15,10,47,8.30
2015,02,15,10,48,8.30
2015,02,15,10,49,8.30
2015,02,15,10,50,8.20
2015,02,15,10,51,8.30
2015,02,15,10,52,8.30
2015,02,15,10,53,8.30
2015,02,15,10,54,8.30
2015,02,15,10,55,8.40
2015,02,15,10,56,8.30
2015,02,15,10,57,8.30
2015,02,15,10,58,8.30
2015,02,15,10,59,8.30
2015,02,15,11,00,8.30
2015,02,15,11,01,8.30
2015,02,15,11,02,8.30
2015,02,15,11,03,8.30
2015,02,15,11,04,8.40
2015,02,15,11,05,8.40
2015,02,15,11,06,8.40
2015,02,15,11,07,8.40
2015,02,15,11,08,8.40
2015,02,15,11,09,8.40
2015,02,15,11,10,8.50
2015,02,15,11,11,8.50
2015,02,15,11,12,8.60
2015,02,15,11,13,8.60
2015,02,15,11,14,8.60
2015,02,15,11,15,8.60
2015,02,15,11,16,8.70
2015,02,15,11,17,8.70
2015,02,15,11,18,8.70
2015,02,15,11,19,8.80
2015,02,15,11,20,8.90
2015,02,15,11,21,8.90
2015,02,15,11,22,9.00
2015,02,15,11,23,9.00
2015,02,15,11,24,9.00
2015,02,15,11,25,9.00
2015,02,15,11,26,9.00
2015,02,15,11,27,9.00
2015,02,15,11,28,9.00
2015,02,15,11,29,9.00
2015,02,15,11,30,9.00
2015,02,15,11,31,9.00
2015,02,15,11,32,8.90
2015,02,15,11,33,9.00
2015,02,15,11,34,9.00
2015,02,15,11,35,9.00
2015,02,15,11,36,9.10
2015,02,15,11,37,9.10
2015,02,15,11,38,9.10
2015,02,15,11,39,9.10
2015,02,15,11,40,9.10
2015,02,15,11,41,9.10
2015,02,15,11,42,9.10
2015,02,15,11,43,9.20
2015,02,15,11,44,9.20
2015,02,15,11,45,9.20
2015,02,15,11,46,9.30
2015,02,15,11,47,9.40
2015,02,15,11,48,9.50
2015,02,15,11,49,9.50
2015,02,15,11,50,9.50
2015,02,15,11,51,9.50
2015,02,15,11,52,9.50
2015,02,15,11,53,9.50
2015,02,15,11,54,9.50
2015,02,15,11,55,9.50
2015,02,15,11,56,9.40
2015,02,15,11,57,9.40
2015,02,15,11,58,9.40
2015,02,15,11,59,9.40
2015,02,15,12,00,9.30
2015,02,15,12,01,9.30
2015,02,15,12,02,9.30
2015,02,15,12,03,9.30
2015,02,15,12,04,9.30
2015,02,15,12,05,9.30
2015,02,15,12,06,9.30
2015,02,15,12,07,9.20
2015,02,15,12,08,9.20
2015,02,15,12,09,9.20
2015,02,15,12,10,9.20
2015,02,15,12,11,9.20
2015,02,15,12,12,9.20
2015,02,15,12,13,9.20
2015,02,15,12,14,9.20
2015,02,15,12,15,9.20
2015,02,15,12,16,9.20
2015,02,15,12,17,9.20
2015,02,15,12,18,9.30
2015,02,15,12,19,9.30
2015,02,15,12,20,9.30
2015,02,15,12,21,9.40
2015,02,15,12,22,9.40
2015,02,15,12,23,9.50
2015,02,15,12,24,9.50
2015,02,15,12,25,9.40
2015,02,15,12,26,9.40
2015,02,15,12,27,9.40
2015,02,15,12,28,9.40
2015,02,15,12,29,9.40
2015,02,15,12,30,9.40
2015,02,15,12,31,9.40
2015,02,15,12,32,9.50
2015,02,15,12,33,9.50
2015,02,15,12,34,9.50
2015,02,15,12,35,9.60
2015,02,15,12,36,9.60
2015,02,15,12,37,9.60
2015,02,15,12,38,9.70
2015,02,15,12,39,9.70
2015,02,15,12,40,9.70
2015,02,15,12,41,9.70
2015,02,15,12,42,9.70
2015,02,15,12,43,9.70
2015,02,15,12,44,9.70
2015,02,15,12,45,9.70
2015,02,15,12,46,9.70
2015,02,15,12,47,9.70
2015,02,15,12,48,9.80
2015,02,15,12,49,9.80
2015,02,15,12,50,9.80
2015,02,15,12,51,9.90
2015,02,15,12,52,9.90
2015,02,15,12,53,9.90
2015,02,15,12,54,9.90
2015,02,15,12,55,9.90
2015,02,15,12,56,10.00
2015,02,15,12,57,10.10
2015,02,15,12,58,10.10
2015,02,15,12,59,10.20
2015,02,15,13,00,10.20
2015,02,15,13,01,10.30
2015,02,15,13,02,10.40
2015,02,15,13,03,10.50
2015,02,15,13,04,10.60
2015,02,15,13,05,10.60
2015,02,15,13,06,10.70
2015,02,15,13,07,10.60
2015,02,15,13,08,10.60
2015,02,15,13,09,10.60
2015,02,15,13,10,10.60
2015,02,15,13,11,10.50
2015,02,15,13,12,10.40
2015,02,15,13,13,10.40
2015,02,15,13,14,10.40
2015,02,15,13,15,10.40
2015,02,15,13,16,10.40
2015,02,15,13,17,10.50
2015,02,15,13,18,10.60
2015,02,15,13,19,10.60
2015,02,15,13,20,10.60
2015,02,15,13,21,10.60
2015,02,15,13,22,10.60
2015,02,15,13,23,10.60
2015,02,15,13,24,10.60
2015,02,15,13,25,10.60
2015,02,15,13,26,10.70
2015,02,15,13,27,10.70
2015,02,15,13,28,10.70
2015,02,15,13,29,10.70
2015,02,15,13,30,10.60
2015,02,15,13,31,10.60
2015,02,15,13,32,10.70
2015,02,15,13,33,10.70
2015,02,15,13,34,10.70
2015,02,15,13,35,10.70
2015,02,15,13,36,10.70
2015,02,15,13,37,10.70
2015,02,15,13,38,10.70
2015,02,15,13,39,10.70
2015,02,15,13,40,10.70
2015,02,15,13,41,10.70
2015,02,15,13,42,10.80
2015,02,15,13,43,10.90
2015,02,15,13,44,10.90
2015,02,15,13,45,10.90
2015,02,15,13,46,11.00
2015,02,15,13,47,11.10
2015,02,15,13,48,11.10
2015,02,15,13,49,11.10
2015,02,15,13,50,11.20
2015,02,15,13,51,11.30
2015,02,15,13,52,11.30
2015,02,15,13,53,11.40
2015,02,15,13,54,11.40
2015,02,15,13,55,11.40
2015,02,15,13,56,11.40
2015,02,15,13,57,11.40
2015,02,15,13,58,11.40
2015,02,15,13,59,11.40
2015,02,15,14,00,11.30
2015,02,15,14,01,11.30
2015,02,15,14,02,11.30
2015,02,15,14,03,11.30
2015,02,15,14,04,11.20
2015,02,15,14,05,11.20
2015,02,15,14,06,11.20
2015,02,15,14,07,11.30
2015,02,15,14,08,11.40
2015,02,15,14,09,11.50
2015,02,15,14,10,11.60
2015,02,15,14,11,11.60
2015,02,15,14,12,11.70
2015,02,15,14,13,11.60
2015,02,15,14,14,11.60
2015,02,15,14,15,11.40
2015,02,15,14,16,11.40
2015,02,15,14,17,11.30
2015,02,15,14,18,11.30
2015,02,15,14,19,11.20
2015,02,15,14,20,11.20
2015,02,15,14,21,11.20
2015,02,15,14,22,11.20
2015,02,15,14,23,11.20
2015,02,15,14,24,11.30
2015,02,15,14,25,11.30
2015,02,15,14,26,11.30
2015,02,15,14,27,11.40
2015,02,15,14,28,11.40
2015,02,15,14,29,11.50
2015,02,15,14,30,11.70
2015,02,15,14,31,11.90
2015,02,15,14,32,12.00
2015,02,15,14,33,12.30
2015,02,15,14,34,12.40
2015,02,15,14,35,12.50
2015,02,15,14,36,12.60
2015,02,15,14,37,12.70
2015,02,15,14,38,12.80
2015,02,15,14,39,12.80
2015,02,15,14,40,12.90
2015,02,15,14,41,12.80
2015,02,15,14,42,12.80
2015,02,15,14,43,12.70
2015,02,15,14,44,12.80
2015,02,15,14,45,12.80
2015,02,15,14,46,12.80
2015,02,15,14,47,12.80
2015,02,15,14,48,12.90
2015,02,15,14,49,12.90
2015,02,15,14,50,12.90
2015,02,15,14,51,12.90
2015,02,15,14,52,12.90
2015,02,15,14,53,12.90
2015,02,15,14,54,12.80
2015,02,15,14,55,12.70
2015,02,15,14,56,12.60
2015,02,15,14,57,12.40
2015,02,15,14,58,12.20
2015,02,15,14,59,12.00
2015,02,15,15,00,11.90
2015,02,15,15,01,11.80
2015,02,15,15,02,11.80
2015,02,15,15,03,11.70
2015,02,15,15,04,11.70
2015,02,15,15,05,11.60
2015,02,15,15,06,11.40
2015,02,15,15,07,11.30
2015,02,15,15,08,11.20
2015,02,15,15,09,11.10
2015,02,15,15,10,11.00
2015,02,15,15,11,10.90
2015,02,15,15,12,10.90
2015,02,15,15,13,10.80
2015,02,15,15,14,10.80
2015,02,15,15,15,10.90
2015,02,15,15,16,10.90
2015,02,15,15,17,10.90
2015,02,15,15,18,11.00
2015,02,15,15,19,11.00
2015,02,15,15,20,10.90
2015,02,15,15,21,10.90
2015,02,15,15,22,10.90
2015,02,15,15,23,10.90
2015,02,15,15,24,10.80
2015,02,15,15,25,10.80
2015,02,15,15,26,10.70
2015,02,15,15,27,10.70
2015,02,15,15,28,10.70
2015,02,15,15,29,10.70
2015,02,15,15,30,10.70
2015,02,15,15,31,10.70
2015,02,15,15,32,10.60
2015,02,15,15,33,10.60
2015,02,15,15,34,10.60
2015,02,15,15,35,10.60
2015,02,15,15,36,10.70
2015,02,15,15,37,10.60
2015,02,15,15,38,10.60
2015,02,15,15,39,10.60
2015,02,15,15,40,10.60
2015,02,15,15,41,10.60
2015,02,15,15,42,10.60
2015,02,15,15,43,10.60
2015,02,15,15,44,10.60
2015,02,15,15,45,10.60
2015,02,15,15,46,10.60
2015,02,15,15,47,10.60
2015,02,15,15,48,10.60
2015,02,15,15,49,10.50
2015,02,15,15,50,10.40
2015,02,15,15,51,10.40
2015,02,15,15,52,10.40
2015,02,15,15,53,10.40
2015,02,15,15,54,10.50
2015,02,15,15,55,10.70
2015,02,15,15,56,10.70
2015,02,15,15,57,10.80
2015,02,15,15,58,10.80
2015,02,15,15,59,10.80
2015,02,15,16,00,10.80
2015,02,15,16,01,10.80
2015,02,15,16,02,10.80
2015,02,15,16,03,10.80
2015,02,15,16,04,10.70
2015,02,15,16,05,10.60
2015,02,15,16,06,10.40
2015,02,15,16,07,10.40
2015,02,15,16,08,10.30
2015,02,15,16,09,10.30
2015,02,15,16,10,10.20
2015,02,15,16,11,10.10
2015,02,15,16,12,10.10
2015,02,15,16,13,10.00
2015,02,15,16,14,9.90
2015,02,15,16,15,9.90
2015,02,15,16,16,9.90
2015,02,15,16,17,9.90
2015,02,15,16,18,9.90
2015,02,15,16,19,9.80
2015,02,15,16,20,9.80
2015,02,15,16,21,9.70
2015,02,15,16,22,9.70
2015,02,15,16,23,9.70
2015,02,15,16,24,9.60
2015,02,15,16,25,9.60
2015,02,15,16,26,9.60
2015,02,15,16,27,9.50
2015,02,15,16,28,9.40
2015,02,15,16,29,9.40
2015,02,15,16,30,9.30
2015,02,15,16,31,9.20
2015,02,15,16,32,9.20
2015,02,15,16,33,9.20
2015,02,15,16,34,9.10
2015,02,15,16,35,9.10
2015,02,15,16,36,9.10
2015,02,15,16,37,9.00
2015,02,15,16,38,9.00
2015,02,15,16,39,8.90
2015,02,15,16,40,8.90
2015,02,15,16,41,8.90
2015,02,15,16,42,8.80
2015,02,15,16,43,8.80
2015,02,15,16,44,8.70
2015,02,15,16,45,8.70
2015,02,15,16,46,8.70
2015,02,15,16,47,8.70
2015,02,15,16,48,8.70
2015,02,15,16,49,8.70
2015,02,15,16,50,8.70
2015,02,15,16,51,8.70
2015,02,15,16,52,8.70
2015,02,15,16,53,8.70
2015,02,15,16,54,8.70
2015,02,15,16,55,8.70
2015,02,15,16,56,8.70
2015,02,15,16,57,8.60
2015,02,15,16,58,8.60
2015,02,15,16,59,8.60
2015,02,15,17,00,8.60
2015,02,15,17,01,8.50
2015,02,15,17,02,8.50
2015,02,15,17,03,8.50
2015,02,15,17,04,8.40
2015,02,15,17,05,8.40
2015,02,15,17,06,8.40
2015,02,15,17,07,8.40
2015,02,15,17,08,8.40
2015,02,15,17,09,8.40
2015,02,15,17,10,8.40
2015,02,15,17,11,8.40
2015,02,15,17,12,8.40
2015,02,15,17,13,8.40
2015,02,15,17,14,8.40
2015,02,15,17,15,8.40
